EW3230 Weather Reports


Display with metric or nautical units.
time (UTC)temp
F
wind
direction
speed
MPH
gust
MPH
rain 1hr
in
rain 24hr
in
rain mn
in
humidity
%
barometer
mb
20180619105508 71 4 0.0 1.0 0.00 0.14 0.01 97 1005.2
20180619104510 71 236 0.0 2.0 0.00 0.14 0.01 97 1005.2
20180619103508 70 95 0.0 2.0 0.00 0.14 0.01 97 1005.1
20180619102508 70 193 0.0 0.0 0.00 0.14 0.01 97 1004.9
20180619101506 69 193 0.0 0.0 0.00 0.14 0.01 97 1004.7
20180619100504 69 193 0.0 0.0 0.00 0.14 0.01 97 1004.7
20180619095505 69 197 0.0 0.0 0.00 0.14 0.01 97 1004.5
20180619094504 69 197 0.0 0.0 0.00 0.14 0.01 97 1004.3
20180619093504 68 218 0.0 1.0 0.00 0.14 0.01 97 1004.2
20180619092505 68 242 0.0 0.0 0.00 0.14 0.01 97 1004.2
20180619090502 68 242 0.0 0.0 0.00 0.14 0.01 97 1004.2
20180619085503 67 242 0.0 0.0 0.00 0.14 0.01 97 1004.3
20180619084502 67 242 0.0 0.0 0.00 0.14 0.01 97 1004.2
20180619083500 67 215 0.0 0.0 0.00 0.14 0.01 97 1004.2
20180619082458 67 215 0.0 0.0 0.00 0.14 0.01 97 1004.2
20180619081500 67 272 0.0 0.0 0.00 0.14 0.01 97 1004.2
20180619080458 67 272 0.0 0.0 0.00 0.14 0.01 97 1004.4
20180619075458 67 228 0.0 0.0 0.00 0.14 0.01 97 1004.3
20180619074458 67 228 0.0 0.0 0.00 0.14 0.01 97 1004.3
20180619073500 67 228 0.0 0.0 0.00 0.14 0.01 97 1004.4
20180619072458 67 212 0.0 0.0 0.00 0.14 0.01 97 1004.4
20180619071458 67 212 0.0 0.0 0.00 0.14 0.01 96 1004.5
20180619070459 67 212 0.0 1.0 0.00 0.14 0.01 96 1004.2
20180619065458 67 212 0.0 0.0 0.01 0.14 0.01 96 1004.3
20180619064457 67 212 0.0 1.0 0.01 0.14 0.01 96 1004.3
20180619063458 67 207 0.0 1.0 0.01 0.14 0.01 96 1004.6
20180619062457 67 181 0.0 1.0 0.01 0.14 0.01 96 1004.3
20180619061457 67 221 0.0 0.0 0.01 0.14 0.01 96 1004.5
20180619060457 67 221 0.0 1.0 0.01 0.14 0.01 96 1004.7
20180619055457 67 221 0.0 1.0 0.00 0.13 0.00 96 1004.9
20180619054500 67 228 0.0 0.0 0.00 0.13 0.00 96 1005.1
20180619053459 67 219 0.0 0.0 0.00 0.13 0.00 96 1005.3
20180619052457 67 236 0.0 0.0 0.00 0.13 0.00 96 1005.3
20180619051456 67 194 0.0 0.0 0.00 0.13 0.00 96 1005.3
20180619050455 67 194 0.0 0.0 0.00 0.13 0.00 96 1005.3
20180619045454 67 195 0.0 0.0 0.00 0.13 0.00 96 1005.5
20180619044456 67 195 0.0 0.0 0.00 0.13 0.00 96 1005.7
20180619043455 67 194 0.0 1.0 0.00 0.13 0.00 96 1005.9
20180619042455 67 212 0.0 1.0 0.00 0.13 0.00 96 1006.2
20180619041453 67 203 0.0 1.0 0.00 0.13 0.00 96 1006.1
20180619040452 67 227 0.0 1.0 0.00 0.13 0.00 96 1006.5
20180619035453 67 203 0.0 1.0 0.00 0.13 0.13 96 1006.7
20180619034454 67 215 0.0 1.0 0.02 0.13 0.13 95 1006.6
20180619033452 67 212 0.0 1.0 0.06 0.13 0.13 95 1006.8
20180619032451 67 235 0.0 1.0 0.08 0.13 0.13 95 1007.3
20180619031453 67 208 0.0 1.0 0.10 0.13 0.13 95 1007.3
20180619030450 67 210 0.0 1.0 0.13 0.13 0.13 95 1007.5
20180619025451 67 212 0.0 2.0 0.13 0.13 0.13 94 1007.4
20180619024451 67 211 0.0 2.0 0.11 0.11 0.12 94 1008.2
20180619023450 67 234 0.0 3.0 0.07 0.07 0.08 92 1009.1
20180619022449 68 294 1.0 4.0 0.05 0.05 0.06 90 1009.2
20180619021449 69 232 1.0 5.0 0.03 0.03 0.03 87 1009.5
20180619020447 71 245 1.0 5.0 0.00 0.00 0.00 81 1009.2
20180619015447 72 217 1.0 5.0 0.00 0.00 0.00 77 1009.0
20180619014447 72 209 1.0 6.0 0.00 0.00 0.00 75 1008.7
20180619013447 72 228 1.0 4.0 0.00 0.00 0.00 75 1009.0
20180619012449 72 250 2.0 5.0 0.00 0.00 0.00 75 1009.2
20180619011447 72 246 1.0 3.0 0.00 0.00 0.00 76 1008.9
20180619005445 72 221 1.0 4.0 0.00 0.00 0.00 77 1008.8
20180619004445 72 195 1.0 3.0 0.00 0.00 0.00 76 1008.7
20180619003443 73 206 1.0 3.0 0.00 0.00 0.00 75 1008.1
20180619002442 73 245 1.0 4.0 0.00 0.00 0.00 73 1008.5
20180619001445 73 221 1.0 2.0 0.00 0.00 0.00 71 1008.9
20180619000447 73 221 1.0 6.0 0.00 0.00 0.00 70 1009.3
20180618235443 74 231 2.0 5.0 0.00 0.00 0.00 69 1009.3
20180618234443 74 228 2.0 7.0 0.00 0.00 0.00 68 1009.5
20180618233443 74 268 1.0 5.0 0.00 0.00 0.00 66 1009.7
20180618232443 74 232 1.0 4.0 0.00 0.00 0.00 65 1009.8
20180618231443 74 212 1.0 4.0 0.00 0.00 0.00 64 1009.4
20180618230442 74 212 0.0 3.0 0.00 0.00 0.00 67 1009.5
20180618225445 75 132 1.0 3.0 0.00 0.00 0.00 66 1009.5
20180618224441 75 206 1.0 4.0 0.00 0.00 0.00 66 1009.5
20180618223441 76 232 2.0 6.0 0.00 0.00 0.00 65 1009.4
20180618222439 76 210 1.0 3.0 0.00 0.00 0.00 67 1009.6
20180618221439 76 208 2.0 6.0 0.00 0.00 0.00 67 1009.2
20180618220439 77 191 3.0 7.0 0.00 0.00 0.00 66 1009.2
20180618215439 77 195 3.0 6.0 0.00 0.00 0.00 66 1009.5
20180618214440 78 190 2.0 5.0 0.00 0.00 0.00 66 1009.5
20180618213437 78 195 3.0 10.0 0.00 0.00 0.00 66 1009.8
20180618212436 78 218 3.0 8.0 0.00 0.00 0.00 66 1009.8
20180618211438 79 235 2.0 7.0 0.00 0.00 0.00 67 1010.0
20180618210435 79 221 4.0 9.0 0.00 0.00 0.00 68 1010.1
20180618205436 79 195 3.0 8.0 0.00 0.00 0.00 69 1010.2
20180618204433 79 246 3.0 6.0 0.00 0.00 0.00 70 1010.4
20180618203432 79 193 3.0 7.0 0.00 0.00 0.00 68 1010.7
20180618202430 78 224 4.0 9.0 0.00 0.00 0.00 70 1010.8
20180618201430 78 142 3.0 8.0 0.00 0.00 0.00 70 1011.0
20180618200430 77 243 5.0 11.0 0.00 0.00 0.00 69 1011.1
20180618195430 77 197 4.0 9.0 0.00 0.00 0.00 69 1011.2
20180618194430 78 200 3.0 7.0 0.00 0.00 0.00 70 1011.2
20180618193430 78 190 3.0 6.0 0.00 0.00 0.00 70 1011.4
20180618192430 78 205 2.0 5.0 0.00 0.00 0.00 71 1011.6
20180618191430 77 208 2.0 6.0 0.00 0.00 0.00 72 1011.7
20180618190430 78 208 3.0 7.0 0.00 0.00 0.00 69 1011.9
20180618185430 78 203 2.0 6.0 0.00 0.00 0.00 69 1012.0
20180618184430 79 194 3.0 7.0 0.00 0.00 0.00 67 1011.9
20180618183430 80 225 3.0 8.0 0.00 0.00 0.00 64 1011.9
20180618182430 79 239 4.0 12.0 0.00 0.00 0.00 64 1012.1
20180618181431 79 220 3.0 7.0 0.00 0.00 0.00 65 1012.3
20180618180430 79 207 3.0 8.0 0.00 0.00 0.00 66 1012.6
20180618175430 80 197 2.0 7.0 0.00 0.00 0.00 65 1013.0
20180618174429 79 212 2.0 7.0 0.00 0.00 0.00 66 1013.1
20180618173430 80 190 2.0 5.0 0.00 0.00 0.00 67 1013.4
20180618172430 80 210 2.0 7.0 0.00 0.00 0.00 65 1013.4
20180618171430 81 225 2.0 6.0 0.00 0.00 0.00 63 1013.4
20180618170430 81 158 3.0 6.0 0.00 0.00 0.00 64 1013.5
20180618165430 81 215 2.0 6.0 0.00 0.00 0.00 63 1013.7
20180618164430 81 208 2.0 5.0 0.00 0.00 0.00 62 1013.9
20180618163430 82 222 2.0 6.0 0.00 0.00 0.00 63 1014.0
20180618162430 82 195 2.0 5.0 0.00 0.00 0.00 62 1014.0
20180618161431 82 221 2.0 6.0 0.00 0.00 0.00 62 1013.9
20180618160431 82 222 2.0 6.0 0.00 0.00 0.00 62 1014.0
20180618155431 82 209 2.0 8.0 0.00 0.00 0.00 62 1014.1
20180618154431 82 190 2.0 7.0 0.00 0.00 0.00 61 1014.3
20180618153430 82 221 2.0 6.0 0.00 0.00 0.00 60 1014.3
20180618152430 82 198 2.0 7.0 0.00 0.00 0.00 62 1014.3
20180618151431 81 246 2.0 7.0 0.00 0.00 0.00 60 1014.6
20180618150430 81 225 2.0 6.0 0.00 0.00 0.00 60 1014.8
20180618145430 80 181 3.0 7.0 0.00 0.00 0.00 62 1014.6
20180618144430 80 226 3.0 7.0 0.00 0.00 0.00 62 1014.6
20180618143430 80 209 3.0 8.0 0.00 0.00 0.00 64 1014.6
20180618142430 80 207 2.0 6.0 0.00 0.00 0.00 66 1014.6
20180618141430 80 222 2.0 7.0 0.00 0.00 0.00 66 1014.9
20180618140430 79 193 1.0 4.0 0.00 0.00 0.00 70 1015.0
20180618135433 77 200 1.0 5.0 0.00 0.00 0.00 72 1015.2
20180618134433 77 211 1.0 4.0 0.00 0.00 0.00 74 1015.3
20180618133431 76 215 2.0 5.0 0.00 0.00 0.00 74 1015.3
20180618132430 76 217 2.0 5.0 0.00 0.00 0.00 74 1015.4
20180618131431 76 266 2.0 4.0 0.00 0.00 0.00 76 1015.5
20180618130431 75 229 2.0 4.0 0.00 0.00 0.00 77 1015.6
20180618125431 74 206 1.0 5.0 0.00 0.00 0.00 80 1015.7
20180618124430 73 236 1.0 4.0 0.00 0.00 0.00 81 1015.7
20180618123430 73 195 1.0 4.0 0.00 0.00 0.00 82 1015.7
20180618122430 73 198 1.0 4.0 0.00 0.00 0.00 82 1015.8
20180618121430 72 239 1.0 3.0 0.00 0.00 0.00 84 1015.9
20180618120430 71 219 0.0 0.0 0.00 0.00 0.00 86 1015.9
20180618115431 70 215 0.0 0.0 0.00 0.00 0.00 88 1015.9
20180618114431 70 205 0.0 0.0 0.00 0.00 0.00 89 1016.1
20180618113430 69 216 0.0 1.0 0.00 0.00 0.00 90 1016.2
20180618112430 69 217 0.0 1.0 0.00 0.00 0.00 92 1016.4
20180618111430 68 203 0.0 0.0 0.00 0.00 0.00 93 1016.5
20180618110430 66 221 0.0 0.0 0.00 0.00 0.00 95 1016.6